| time (UTC) | temp F | wind direction | speed knots | gust knots | rain 1hr in | rain 24hr in | rain mn in | humidity % | barometer mb |
| 20260505113113 | 80 | 200 | 0.0 | 1.7 | 0.00 | 0.00 | 0.00 | 90 | 1017.2 |
| 20260505112609 | 80 | 142 | 0.0 | 1.7 | 0.00 | 0.00 | 0.00 | 91 | 1017.2 |
| 20260505112108 | 79 | 162 | 1.7 | 1.7 | 0.00 | 0.00 | 0.00 | 92 | 1017.2 |
| 20260505111601 | 78 | 185 | 0.9 | 1.7 | 0.00 | 0.00 | 0.00 | 93 | 1017.0 |
| 20260505111058 | 77 | 205 | 0.0 | 1.7 | 0.00 | 0.00 | 0.00 | 94 | 1017.0 |
| 20260505110554 | 78 | 198 | 0.9 | 0.9 | 0.00 | 0.00 | 0.00 | 97 | 1017.0 |
| 20260505102027 | 73 | 113 | 0.0 | 1.7 | 0.00 | 0.00 | 0.00 | 98 | 1016.3 |
| 20260505101525 | 73 | 104 | 2.6 | 2.6 | 0.02 | 0.00 | 0.00 | 98 | 1016.2 |
| 20260505101021 | 74 | 115 | 1.7 | 3.5 | 0.02 | 0.00 | 0.00 | 98 | 1016.4 |
| 20260505100519 | 74 | 117 | 1.7 | 2.6 | 0.00 | 0.00 | 0.00 | 98 | 1016.3 |
| 20260505100016 | 73 | 126 | 2.6 | 3.5 | 0.00 | 0.00 | 0.00 | 98 | 1016.1 |
| 20260505095511 | 73 | 93 | 1.7 | 1.7 | 0.00 | 0.00 | 0.00 | 97 | 1016.2 |
| 20260505095008 | 73 | 93 | 0.0 | 1.7 | 0.00 | 0.00 | 0.00 | 97 | 1016.3 |
| 20260505094504 | 73 | 65 | 0.9 | 2.6 | 0.00 | 0.00 | 0.00 | 97 | 1016.2 |
| 20260505094001 | 73 | 65 | 1.7 | 2.6 | 0.00 | 0.00 | 0.00 | 97 | 1016.2 |
| 20260505093457 | 73 | 79 | 1.7 | 1.7 | 0.00 | 0.00 | 0.00 | 97 | 1016.2 |
| 20260505092955 | 73 | 64 | 1.7 | 1.7 | 0.00 | 0.00 | 0.00 | 97 | 1016.1 |
| 20260505092452 | 73 | 117 | 0.9 | 1.7 | 0.00 | 0.00 | 0.00 | 97 | 1016.1 |
| 20260505091950 | 73 | 58 | 1.7 | 1.7 | 0.00 | 0.00 | 0.00 | 98 | 1016.2 |
| 20260505091447 | 73 | 131 | 0.9 | 2.6 | 0.00 | 0.00 | 0.00 | 98 | 1016.1 |
| 20260505090945 | 73 | 74 | 1.7 | 2.6 | 0.00 | 0.00 | 0.00 | 98 | 1016.1 |
| 20260505090443 | 73 | 72 | 1.7 | 1.7 | 0.00 | 0.00 | 0.00 | 97 | 1016.2 |
| 20260505085940 | 73 | 56 | 0.9 | 1.7 | 0.00 | 0.00 | 0.00 | 98 | 1016.0 |
| 20260505085438 | 73 | 88 | 1.7 | 1.7 | 0.00 | 0.00 | 0.00 | 97 | 1015.9 |
| 20260505084936 | 73 | 87 | 1.7 | 1.7 | 0.00 | 0.00 | 0.00 | 97 | 1015.9 |
| 20260505084434 | 73 | 75 | 0.9 | 1.7 | 0.00 | 0.00 | 0.00 | 97 | 1015.9 |
| 20260505083931 | 73 | 75 | 0.0 | 0.9 | 0.00 | 0.00 | 0.00 | 97 | 1015.9 |
| 20260505083428 | 73 | 63 | 1.7 | 2.6 | 0.00 | 0.00 | 0.00 | 97 | 1016.0 |
| 20260505082924 | 73 | 61 | 1.7 | 1.7 | 0.00 | 0.00 | 0.00 | 97 | 1015.9 |
| 20260505082420 | 73 | 82 | 1.7 | 1.7 | 0.00 | 0.00 | 0.00 | 97 | 1015.9 |
| 20260505081918 | 73 | 67 | 1.7 | 1.7 | 0.00 | 0.00 | 0.00 | 97 | 1015.7 |
| 20260505081415 | 73 | 73 | 1.7 | 1.7 | 0.00 | 0.00 | 0.00 | 97 | 1015.6 |
| 20260505080911 | 73 | 87 | 1.7 | 1.7 | 0.00 | 0.00 | 0.00 | 97 | 1015.7 |
| 20260505080407 | 73 | 83 | 1.7 | 2.6 | 0.00 | 0.00 | 0.00 | 97 | 1015.7 |
| 20260505075903 | 73 | 33 | 1.7 | 2.6 | 0.00 | 0.00 | 0.00 | 97 | 1015.6 |
| 20260505075359 | 73 | 63 | 1.7 | 1.7 | 0.00 | 0.00 | 0.00 | 97 | 1015.8 |
| 20260505074857 | 74 | 88 | 1.7 | 1.7 | 0.00 | 0.00 | 0.00 | 97 | 1015.6 |
| 20260505074354 | 74 | 46 | 1.7 | 1.7 | 0.00 | 0.00 | 0.00 | 97 | 1015.6 |
| 20260505073851 | 74 | 59 | 1.7 | 2.6 | 0.00 | 0.00 | 0.00 | 97 | 1015.5 |
| 20260505073349 | 74 | 87 | 1.7 | 1.7 | 0.00 | 0.00 | 0.00 | 97 | 1015.5 |
| 20260505072846 | 74 | 71 | 1.7 | 1.7 | 0.00 | 0.00 | 0.00 | 97 | 1015.8 |
| 20260505072342 | 74 | 83 | 0.9 | 0.9 | 0.00 | 0.00 | 0.00 | 97 | 1015.4 |
| 20260505071838 | 75 | 89 | 0.0 | 0.9 | 0.00 | 0.00 | 0.00 | 97 | 1015.8 |
| 20260505071335 | 75 | 92 | 0.9 | 1.7 | 0.00 | 0.00 | 0.00 | 97 | 1015.6 |
| 20260505070833 | 75 | 54 | 0.0 | 1.7 | 0.00 | 0.00 | 0.00 | 97 | 1015.7 |
| 20260505070329 | 75 | 65 | 0.9 | 1.7 | 0.00 | 0.00 | 0.00 | 97 | 1015.4 |
| 20260505065824 | 75 | 61 | 0.9 | 1.7 | 0.00 | 0.00 | 0.00 | 97 | 1015.6 |
| 20260505065321 | 75 | 75 | 0.9 | 1.7 | 0.00 | 0.00 | 0.00 | 97 | 1015.6 |
| 20260505064819 | 75 | 80 | 1.7 | 1.7 | 0.00 | 0.00 | 0.00 | 97 | 1015.6 |
| 20260505064315 | 75 | 72 | 0.9 | 0.9 | 0.00 | 0.00 | 0.00 | 97 | 1015.7 |
| 20260505063814 | 75 | 119 | 0.9 | 2.6 | 0.00 | 0.00 | 0.00 | 97 | 1015.8 |
| 20260505063309 | 75 | 75 | 1.7 | 1.7 | 0.00 | 0.00 | 0.00 | 97 | 1015.8 |
| 20260505062806 | 75 | 55 | 0.0 | 1.7 | 0.00 | 0.00 | 0.00 | 97 | 1015.7 |
| 20260505062304 | 75 | 89 | 0.0 | 0.9 | 0.00 | 0.00 | 0.00 | 97 | 1015.8 |
| 20260505061800 | 75 | 89 | 1.7 | 1.7 | 0.00 | 0.00 | 0.00 | 97 | 1015.8 |
| 20260505061258 | 75 | 67 | 1.7 | 1.7 | 0.00 | 0.00 | 0.00 | 97 | 1016.0 |
| 20260505060755 | 75 | 68 | 1.7 | 1.7 | 0.00 | 0.00 | 0.00 | 97 | 1015.8 |
| 20260505060252 | 75 | 83 | 1.7 | 1.7 | 0.00 | 0.00 | 0.00 | 97 | 1015.9 |
| 20260505055748 | 75 | 86 | 1.7 | 1.7 | 0.00 | 0.00 | 0.00 | 97 | 1016.2 |
| 20260505055244 | 75 | 73 | 0.9 | 1.7 | 0.00 | 0.00 | 0.00 | 97 | 1016.1 |
| 20260505054742 | 75 | 83 | 1.7 | 1.7 | 0.00 | 0.00 | 0.00 | 97 | 1016.3 |
| 20260505054239 | 75 | 83 | 0.9 | 1.7 | 0.00 | 0.00 | 0.00 | 97 | 1016.2 |
| 20260505053737 | 75 | 84 | 1.7 | 1.7 | 0.00 | 0.00 | 0.00 | 97 | 1016.5 |
| 20260505053234 | 75 | 79 | 0.9 | 1.7 | 0.00 | 0.00 | 0.00 | 97 | 1016.4 |
| 20260505052731 | 75 | 84 | 1.7 | 1.7 | 0.00 | 0.00 | 0.00 | 97 | 1016.4 |
| 20260505052228 | 75 | 82 | 1.7 | 1.7 | 0.00 | 0.00 | 0.00 | 97 | 1016.5 |
| 20260505051725 | 75 | 79 | 1.7 | 2.6 | 0.00 | 0.00 | 0.00 | 97 | 1016.7 |
| 20260505051223 | 75 | 76 | 1.7 | 1.7 | 0.00 | 0.00 | 0.00 | 97 | 1016.5 |
| 20260505050720 | 75 | 58 | 0.0 | 0.9 | 0.00 | 0.00 | 0.00 | 97 | 1016.5 |
| 20260505050219 | 74 | 52 | 0.9 | 1.7 | 0.00 | 0.00 | 0.00 | 97 | 1016.5 |
| 20260505041648 | 74 | 88 | 1.7 | 1.7 | 0.00 | 0.00 | 0.00 | 96 | 1017.0 |
| 20260505041146 | 74 | 42 | 0.0 | 1.7 | 0.00 | 0.00 | 0.00 | 96 | 1017.0 |
| 20260505040643 | 74 | 60 | 1.7 | 1.7 | 0.00 | 0.00 | 0.00 | 96 | 1017.1 |
| 20260505040140 | 74 | 58 | 1.7 | 1.7 | 0.00 | 0.00 | 0.00 | 96 | 1017.2 |
| 20260505035636 | 74 | 76 | 1.7 | 1.7 | 0.00 | 0.00 | 0.00 | 96 | 1017.1 |
| 20260505035132 | 74 | 67 | 0.9 | 1.7 | 0.00 | 0.00 | 0.00 | 96 | 1017.4 |
| 20260505034629 | 74 | 59 | 1.7 | 1.7 | 0.00 | 0.00 | 0.00 | 96 | 1017.4 |
| 20260505034126 | 74 | 86 | 1.7 | 2.6 | 0.00 | 0.00 | 0.00 | 96 | 1017.4 |
| 20260505033622 | 74 | 47 | 1.7 | 2.6 | 0.00 | 0.00 | 0.00 | 96 | 1017.6 |
| 20260505033121 | 74 | 43 | 1.7 | 1.7 | 0.00 | 0.00 | 0.00 | 96 | 1017.4 |
| 20260505032619 | 74 | 76 | 1.7 | 2.6 | 0.00 | 0.00 | 0.00 | 96 | 1017.4 |
| 20260505032115 | 74 | 49 | 1.7 | 1.7 | 0.00 | 0.00 | 0.00 | 96 | 1017.3 |
| 20260505031612 | 74 | 77 | 1.7 | 1.7 | 0.00 | 0.00 | 0.00 | 96 | 1017.6 |
| 20260505031108 | 74 | 68 | 1.7 | 2.6 | 0.00 | 0.00 | 0.00 | 96 | 1017.4 |
| 20260505030605 | 74 | 70 | 1.7 | 1.7 | 0.00 | 0.00 | 0.00 | 96 | 1017.2 |
| 20260505025557 | 74 | 63 | 1.7 | 1.7 | 0.00 | 0.00 | 0.00 | 95 | 1017.5 |
| 20260505025056 | 75 | 73 | 0.0 | 2.6 | 0.00 | 0.00 | 0.00 | 95 | 1017.3 |
| 20260505024553 | 75 | 72 | 1.7 | 2.6 | 0.00 | 0.00 | 0.00 | 96 | 1017.2 |
| 20260505024050 | 75 | 77 | 1.7 | 1.7 | 0.00 | 0.00 | 0.00 | 95 | 1017.5 |
| 20260505023547 | 75 | 64 | 0.9 | 1.7 | 0.00 | 0.00 | 0.00 | 95 | 1017.3 |
| 20260505023045 | 75 | 98 | 1.7 | 2.6 | 0.00 | 0.00 | 0.00 | 95 | 1017.4 |
| 20260505022542 | 75 | 84 | 2.6 | 2.6 | 0.00 | 0.00 | 0.00 | 95 | 1017.2 |
| 20260505022039 | 75 | 77 | 1.7 | 1.7 | 0.00 | 0.00 | 0.00 | 95 | 1017.2 |
| 20260505021536 | 75 | 78 | 1.7 | 2.6 | 0.00 | 0.00 | 0.00 | 95 | 1017.1 |
| 20260505021033 | 75 | 95 | 1.7 | 2.6 | 0.00 | 0.00 | 0.00 | 95 | 1017.3 |
| 20260505020532 | 75 | 91 | 1.7 | 1.7 | 0.00 | 0.00 | 0.00 | 95 | 1017.3 |
| 20260505020030 | 75 | 84 | 0.9 | 1.7 | 0.00 | 0.00 | 0.00 | 95 | 1017.2 |
| 20260505015527 | 75 | 87 | 0.9 | 1.7 | 0.00 | 0.00 | 0.00 | 95 | 1017.1 |
| 20260505015023 | 75 | 75 | 1.7 | 2.6 | 0.00 | 0.00 | 0.00 | 95 | 1017.1 |
| 20260505014520 | 75 | 94 | 1.7 | 1.7 | 0.00 | 0.00 | 0.00 | 95 | 1017.1 |
| 20260505014018 | 76 | 87 | 1.7 | 1.7 | 0.00 | 0.00 | 0.00 | 95 | 1017.1 |
| 20260505013515 | 76 | 82 | 1.7 | 1.7 | 0.00 | 0.00 | 0.00 | 95 | 1017.0 |
| 20260505013012 | 76 | 83 | 0.9 | 1.7 | 0.00 | 0.00 | 0.00 | 95 | 1017.1 |
| 20260505012510 | 75 | 73 | 0.0 | 0.9 | 0.00 | 0.00 | 0.00 | 95 | 1016.9 |
| 20260505012007 | 75 | 87 | 1.7 | 1.7 | 0.00 | 0.00 | 0.00 | 94 | 1016.8 |
| 20260505011502 | 76 | 87 | 0.9 | 1.7 | 0.00 | 0.00 | 0.00 | 94 | 1016.9 |
| 20260505010959 | 76 | 89 | 1.7 | 1.7 | 0.00 | 0.00 | 0.00 | 94 | 1016.7 |
| 20260505010455 | 76 | 89 | 1.7 | 2.6 | 0.00 | 0.00 | 0.00 | 94 | 1016.8 |
| 20260505005951 | 76 | 96 | 1.7 | 1.7 | 0.00 | 0.00 | 0.00 | 94 | 1016.5 |
| 20260505005448 | 76 | 93 | 0.9 | 1.7 | 0.00 | 0.00 | 0.00 | 93 | 1016.6 |
| 20260505004946 | 76 | 70 | 1.7 | 1.7 | 0.00 | 0.00 | 0.00 | 93 | 1016.5 |
| 20260505004442 | 77 | 94 | 1.7 | 2.6 | 0.00 | 0.00 | 0.00 | 93 | 1016.4 |
| 20260505003939 | 77 | 61 | 0.0 | 0.9 | 0.00 | 0.00 | 0.00 | 93 | 1016.5 |
| 20260505003436 | 77 | 98 | 0.9 | 1.7 | 0.00 | 0.00 | 0.00 | 93 | 1016.5 |
| 20260505002932 | 77 | 99 | 1.7 | 1.7 | 0.00 | 0.00 | 0.00 | 93 | 1016.5 |
| 20260505002429 | 77 | 79 | 1.7 | 1.7 | 0.00 | 0.00 | 0.00 | 92 | 1016.4 |
| 20260505001927 | 77 | 89 | 0.9 | 1.7 | 0.00 | 0.00 | 0.00 | 92 | 1016.4 |
| 20260505001425 | 77 | 83 | 1.7 | 1.7 | 0.00 | 0.00 | 0.00 | 92 | 1016.4 |
| 20260505000922 | 77 | 72 | 0.9 | 1.7 | 0.00 | 0.00 | 0.00 | 91 | 1016.2 |
| 20260505000420 | 77 | 102 | 0.9 | 1.7 | 0.00 | 0.00 | 0.00 | 91 | 1016.5 |
| 20260504235916 | 77 | 64 | 0.9 | 1.7 | 0.00 | 0.00 | 0.00 | 90 | 1016.4 |
| 20260504235414 | 78 | 101 | 1.7 | 2.6 | 0.00 | 0.00 | 0.00 | 90 | 1016.4 |
| 20260504234909 | 78 | 95 | 0.9 | 1.7 | 0.00 | 0.00 | 0.00 | 89 | 1016.4 |
| 20260504234407 | 78 | 102 | 1.7 | 1.7 | 0.00 | 0.00 | 0.00 | 89 | 1016.4 |
| 20260504233903 | 78 | 83 | 0.9 | 1.7 | 0.00 | 0.00 | 0.00 | 88 | 1016.2 |
| 20260504233359 | 78 | 49 | 0.9 | 1.7 | 0.00 | 0.00 | 0.00 | 88 | 1016.0 |
| 20260504232856 | 78 | 61 | 0.0 | 1.7 | 0.00 | 0.00 | 0.00 | 87 | 1016.0 |
| 20260504232353 | 79 | 74 | 0.9 | 1.7 | 0.00 | 0.00 | 0.00 | 87 | 1015.9 |
| 20260504231850 | 79 | 84 | 1.7 | 1.7 | 0.00 | 0.00 | 0.00 | 86 | 1015.9 |
| 20260504231346 | 79 | 75 | 0.9 | 1.7 | 0.00 | 0.00 | 0.00 | 85 | 1016.0 |
| 20260504230843 | 79 | 44 | 1.7 | 1.7 | 0.00 | 0.00 | 0.00 | 85 | 1016.0 |
| 20260504230340 | 79 | 84 | 0.0 | 2.6 | 0.00 | 0.00 | 0.00 | 85 | 1016.0 |
| 20260504225839 | 79 | 111 | 1.7 | 2.6 | 0.00 | 0.00 | 0.00 | 84 | 1016.0 |
| 20260504225335 | 79 | 124 | 0.9 | 1.7 | 0.00 | 0.00 | 0.00 | 84 | 1015.8 |
| 20260504224833 | 79 | 108 | 1.7 | 2.6 | 0.00 | 0.00 | 0.00 | 84 | 1015.8 |
| 20260504224329 | 80 | 76 | 1.7 | 2.6 | 0.00 | 0.00 | 0.00 | 84 | 1015.7 |
| 20260504223826 | 80 | 104 | 2.6 | 2.6 | 0.00 | 0.00 | 0.00 | 83 | 1015.7 |
| 20260504223321 | 80 | 75 | 2.6 | 3.5 | 0.00 | 0.00 | 0.00 | 83 | 1015.7 |
| 20260504222818 | 80 | 108 | 2.6 | 3.5 | 0.00 | 0.00 | 0.00 | 83 | 1015.3 |
| 20260504222315 | 80 | 76 | 0.9 | 5.2 | 0.00 | 0.00 | 0.00 | 83 | 1015.5 |
| 20260504221814 | 80 | 85 | 2.6 | 5.2 | 0.00 | 0.00 | 0.00 | 82 | 1015.4 |
| 20260504221310 | 81 | 97 | 1.7 | 5.2 | 0.00 | 0.00 | 0.00 | 82 | 1015.4 |
| 20260504220807 | 81 | 76 | 3.5 | 7.0 | 0.00 | 0.00 | 0.00 | 82 | 1015.1 |
| 20260504220304 | 81 | 88 | 0.0 | 2.6 | 0.00 | 0.00 | 0.00 | 82 | 1015.1 |
| 20260504215801 | 81 | 86 | 1.7 | 4.3 | 0.00 | 0.00 | 0.00 | 82 | 1015.2 |
| 20260504215257 | 81 | 47 | 1.7 | 4.3 | 0.00 | 0.00 | 0.00 | 82 | 1015.0 |
| 20260504214753 | 81 | 111 | 0.0 | 7.0 | 0.00 | 0.00 | 0.00 | 83 | 1015.1 |
| 20260504214250 | 81 | 73 | 5.2 | 6.1 | 0.00 | 0.00 | 0.00 | 83 | 1015.0 |
| 20260504213747 | 81 | 124 | 3.5 | 8.7 | 0.00 | 0.00 | 0.00 | 82 | 1014.9 |
| 20260504213243 | 82 | 128 | 4.3 | 5.2 | 0.00 | 0.00 | 0.00 | 82 | 1015.0 |
| 20260504212740 | 83 | 86 | 5.2 | 8.7 | 0.00 | 0.00 | 0.00 | 79 | 1014.9 |
| 20260504212237 | 82 | 118 | 4.3 | 5.2 | 0.00 | 0.00 | 0.00 | 79 | 1014.7 |
| 20260504211734 | 83 | 81 | 5.2 | 7.8 | 0.00 | 0.00 | 0.00 | 79 | 1014.6 |
| 20260504211230 | 84 | 72 | 4.3 | 4.3 | 0.00 | 0.00 | 0.00 | 79 | 1014.7 |
| 20260504210728 | 83 | 135 | 3.5 | 6.1 | 0.00 | 0.00 | 0.00 | 80 | 1014.9 |
| 20260504210225 | 82 | 332 | 3.5 | 6.1 | 0.00 | 0.00 | 0.00 | 82 | 1014.7 |
| 20260504205722 | 81 | 207 | 1.7 | 3.5 | 0.00 | 0.00 | 0.00 | 85 | 1014.7 |
| 20260504205220 | 80 | 15 | 0.0 | 3.5 | 0.00 | 0.00 | 0.00 | 86 | 1014.6 |
| 20260504204718 | 80 | 204 | 1.7 | 7.8 | 0.00 | 0.00 | 0.00 | 86 | 1014.7 |
| 20260504204216 | 81 | 79 | 6.1 | 8.7 | 0.00 | 0.00 | 0.00 | 84 | 1014.6 |
| 20260504203715 | 80 | 78 | 2.6 | 7.0 | 0.00 | 0.00 | 0.00 | 86 | 1014.6 |
| 20260504203212 | 80 | 95 | 1.7 | 4.3 | 0.00 | 0.00 | 0.00 | 87 | 1014.7 |
| 20260504202711 | 79 | 222 | 1.7 | 8.7 | 0.00 | 0.00 | 0.00 | 86 | 1014.8 |
| 20260504202209 | 81 | 103 | 3.5 | 9.6 | 0.00 | 0.00 | 0.00 | 82 | 1014.8 |
| 20260504201706 | 82 | 109 | 3.5 | 9.6 | 0.00 | 0.00 | 0.00 | 78 | 1014.9 |
| 20260504201203 | 82 | 121 | 7.0 | 7.0 | 0.00 | 0.00 | 0.00 | 79 | 1014.7 |
| 20260504200701 | 83 | 133 | 2.6 | 9.6 | 0.00 | 0.00 | 0.00 | 77 | 1014.9 |
| 20260504200157 | 83 | 101 | 4.3 | 5.2 | 0.00 | 0.00 | 0.00 | 77 | 1014.6 |
| 20260504195653 | 83 | 70 | 3.5 | 7.8 | 0.00 | 0.00 | 0.00 | 77 | 1014.6 |
| 20260504195149 | 82 | 111 | 4.3 | 7.8 | 0.00 | 0.00 | 0.00 | 78 | 1014.7 |
| 20260504194646 | 83 | 102 | 5.2 | 9.6 | 0.00 | 0.00 | 0.00 | 76 | 1014.9 |
| 20260504194142 | 84 | 82 | 4.3 | 7.0 | 0.00 | 0.00 | 0.00 | 76 | 1014.7 |
| 20260504193639 | 86 | 216 | 9.6 | 13.0 | 0.00 | 0.00 | 0.00 | 70 | 1015.0 |
| 20260504193137 | 84 | 213 | 6.1 | 11.3 | 0.00 | 0.00 | 0.00 | 73 | 1014.9 |
| 20260504192634 | 85 | 289 | 1.7 | 6.1 | 0.00 | 0.00 | 0.00 | 73 | 1014.7 |
| 20260504192132 | 85 | 18 | 2.6 | 6.1 | 0.00 | 0.00 | 0.00 | 73 | 1014.9 |
| 20260504191631 | 85 | 83 | 4.3 | 8.7 | 0.00 | 0.00 | 0.00 | 72 | 1014.8 |
| 20260504191127 | 85 | 225 | 4.3 | 9.6 | 0.00 | 0.00 | 0.00 | 73 | 1014.9 |
| 20260504190623 | 85 | 109 | 5.2 | 10.4 | 0.00 | 0.00 | 0.00 | 71 | 1014.8 |
| 20260504190120 | 85 | 209 | 9.6 | 14.8 | 0.00 | 0.00 | 0.00 | 72 | 1014.9 |
| 20260504185616 | 84 | 214 | 5.2 | 14.8 | 0.00 | 0.00 | 0.00 | 75 | 1014.9 |
| 20260504185113 | 85 | 189 | 5.2 | 12.2 | 0.00 | 0.00 | 0.00 | 73 | 1014.9 |
| 20260504184608 | 85 | 31 | 1.7 | 7.8 | 0.00 | 0.00 | 0.00 | 73 | 1015.2 |
| 20260504184104 | 84 | 1 | 1.7 | 7.8 | 0.00 | 0.00 | 0.00 | 74 | 1015.4 |
| 20260504183601 | 84 | 35 | 2.6 | 7.0 | 0.00 | 0.00 | 0.00 | 73 | 1015.2 |
| 20260504183059 | 86 | 109 | 1.7 | 12.2 | 0.00 | 0.00 | 0.00 | 70 | 1015.4 |
| 20260504182556 | 86 | 73 | 7.0 | 7.8 | 0.00 | 0.00 | 0.00 | 71 | 1015.4 |
| 20260504182053 | 86 | 80 | 5.2 | 11.3 | 0.00 | 0.00 | 0.00 | 70 | 1015.4 |
| 20260504181550 | 86 | 34 | 2.6 | 6.1 | 0.00 | 0.00 | 0.00 | 70 | 1015.3 |
| 20260504181048 | 86 | 249 | 2.6 | 12.2 | 0.00 | 0.00 | 0.00 | 71 | 1015.2 |
| 20260504180547 | 84 | 202 | 7.8 | 13.9 | 0.00 | 0.00 | 0.00 | 75 | 1015.6 |
| 20260504180045 | 83 | 225 | 6.1 | 12.2 | 0.00 | 0.00 | 0.00 | 76 | 1015.5 |
| 20260504175542 | 83 | 186 | 4.3 | 15.6 | 0.00 | 0.00 | 0.00 | 76 | 1015.6 |
| 20260504175039 | 86 | 215 | 16.5 | 17.4 | 0.00 | 0.00 | 0.00 | 71 | 1015.7 |
| 20260504174537 | 85 | 341 | 1.7 | 6.1 | 0.00 | 0.00 | 0.00 | 71 | 1015.6 |
| 20260504174033 | 85 | 198 | 0.9 | 11.3 | 0.00 | 0.00 | 0.00 | 69 | 1015.7 |
| 20260504173530 | 86 | 207 | 3.5 | 7.8 | 0.00 | 0.00 | 0.00 | 68 | 1015.8 |
| 20260504173028 | 86 | 153 | 6.1 | 9.6 | 0.00 | 0.00 | 0.00 | 69 | 1016.0 |
| 20260504172524 | 85 | 88 | 3.5 | 9.6 | 0.00 | 0.00 | 0.00 | 69 | 1015.8 |
| 20260504172020 | 86 | 85 | 8.7 | 11.3 | 0.00 | 0.00 | 0.00 | 67 | 1016.0 |
| 20260504171517 | 86 | 354 | 2.6 | 11.3 | 0.00 | 0.00 | 0.00 | 67 | 1016.2 |
| 20260504171014 | 86 | 126 | 1.7 | 9.6 | 0.00 | 0.00 | 0.00 | 66 | 1016.1 |
| 20260504170510 | 87 | 246 | 4.3 | 5.2 | 0.00 | 0.00 | 0.00 | 65 | 1016.1 |
| 20260504160431 | 86 | 59 | 2.6 | 9.6 | 0.00 | 0.00 | 0.00 | 66 | 1016.9 |
| 20260504150854 | 84 | 235 | 3.5 | 13.0 | 0.00 | 0.00 | 0.00 | 68 | 1017.0 |
| 20260504150351 | 85 | 194 | 3.5 | 11.3 | 0.00 | 0.00 | 0.00 | 66 | 1016.9 |
| 20260504141321 | 86 | 4 | 2.6 | 7.8 | 0.00 | 0.00 | 0.00 | 67 | 1017.1 |
| 20260504140817 | 86 | 3 | 3.5 | 9.6 | 0.00 | 0.00 | 0.00 | 68 | 1016.9 |
| 20260504140313 | 85 | 142 | 5.2 | 13.0 | 0.00 | 0.00 | 0.00 | 70 | 1017.1 |
| 20260504130742 | 81 | 55 | 6.1 | 7.8 | 0.00 | 0.00 | 0.00 | 78 | 1017.3 |
| 20260504130238 | 82 | 89 | 8.7 | 10.4 | 0.00 | 0.00 | 0.00 | 77 | 1017.0 |
| 20260504120202 | 79 | 83 | 0.9 | 3.5 | 0.00 | 0.00 | 0.00 | 85 | 1017.3 |